Date String (YYYY-MM-DD hh:mm:ss) UTC,Instrument flags,Ambient pressure (hPa),Sample flow (lpm),Bypass flow (lpm),Sample temperature (°C),Ambient temperature (°C),ASC tube jacket temperature (°C),LED temperature (°C),Box temperature (°C),Sample RH (%),Span deviation,Mass concentration (μg/m³),Mass concentration (μg/m³),Mass concentration (μg/m³)
DateTimeUTC,F1_M11,P_M11,Q1_M11,Q2_M11,T1_M11,T2_M11,T3_M11,T4_M11,T5_M11,U1_M11,ZSPAN_M11,X0_M11,X2_M11,X1_M11
2022-12-12 12:00:00,,0812.2,4.99,0.00,23.6,22.0,00.0,32.6,25.5,06.8,0000.0,0007.37,0003.13,0002.52
2022-12-12 12:01:00,,0812.2,4.99,0.00,23.6,22.0,00.0,32.5,25.5,06.8,0000.0,0007.34,0003.08,0002.46
2022-12-12 12:02:00,,0812.3,5.00,0.00,23.6,22.0,00.0,32.5,25.4,06.9,0000.0,0007.08,0003.05,0002.43
2022-12-12 12:03:00,,0812.3,5.00,0.00,23.6,22.1,00.0,32.5,25.5,06.9,0000.0,0006.70,0003.03,0002.43
2022-12-12 12:04:00,,0812.3,5.01,0.00,23.6,22.1,00.0,32.5,25.5,06.9,0000.0,0007.24,0003.06,0002.44
2022-12-12 12:05:00,,0812.2,5.01,0.00,23.6,22.1,00.0,32.5,25.5,06.8,0000.0,0007.55,0003.07,0002.46
2022-12-12 12:06:00,,0812.2,5.01,0.00,23.6,22.1,00.0,32.5,25.5,06.8,0000.0,0007.71,0003.05,0002.43
2022-12-12 12:07:00,,0812.1,4.99,0.00,23.6,22.0,00.0,32.5,25.4,06.9,0000.0,0007.64,0003.06,0002.44
2022-12-12 12:08:00,,0812.1,4.99,0.00,23.5,21.9,00.0,32.5,25.4,06.9,0000.0,0007.42,0003.02,0002.43
2022-12-12 12:09:00,,0812.2,5.00,0.00,23.5,21.9,00.0,32.5,25.4,06.9,0000.0,0005.80,0002.98,0002.42
2022-12-12 12:10:00,,0812.1,5.00,0.00,23.5,21.8,00.0,32.4,25.4,07.0,0000.0,0005.77,0002.97,0002.42
2022-12-12 12:11:00,,0812.1,5.01,0.00,23.5,21.9,00.0,32.4,25.4,07.0,0000.0,0005.75,0002.94,0002.38
2022-12-12 12:12:00,,0812.2,4.99,0.00,23.5,21.9,00.0,32.4,25.4,07.0,0000.0,0005.70,0002.92,0002.37
2022-12-12 12:13:00,,0812.1,4.99,0.00,23.5,21.9,00.0,32.4,25.4,07.0,0000.0,0005.84,0002.97,0002.36
2022-12-12 12:14:00,,0812.2,5.00,0.00,23.5,21.9,00.0,32.4,25.4,07.0,0000.0,0005.91,0002.98,0002.35
2022-12-12 12:15:00,,0812.2,5.01,0.00,23.5,21.9,00.0,32.4,25.3,07.0,0000.0,0005.38,0002.92,0002.33
2022-12-12 12:16:00,,0812.2,5.01,0.00,23.5,21.9,00.0,32.4,25.3,07.1,0000.0,0005.41,0002.91,0002.31
2022-12-12 12:17:00,,0812.2,4.98,0.00,23.5,22.0,00.0,32.4,25.2,07.0,0000.0,0006.51,0002.94,0002.32
2022-12-12 12:18:00,,0812.2,5.00,0.00,23.5,22.0,00.0,32.4,25.2,07.1,0000.0,0007.00,0002.91,0002.30
2022-12-12 12:19:00,,0812.2,5.01,0.00,23.5,22.0,00.0,32.4,25.1,07.1,0000.0,0006.87,0002.82,0002.23
2022-12-12 12:20:00,,0812.1,5.00,0.00,23.4,22.0,00.0,32.4,25.1,07.1,0000.0,0006.85,0002.76,0002.16
2022-12-12 12:21:00,,0812.2,4.99,0.00,23.4,22.0,00.0,32.4,25.1,07.0,0000.0,0006.73,0002.68,0002.11
2022-12-12 12:22:00,,0812.2,5.00,0.00,23.4,22.0,00.0,32.4,25.1,07.0,0000.0,0007.55,0002.69,0002.07
2022-12-12 12:23:00,,0812.2,5.01,0.00,23.4,22.0,00.0,32.4,25.1,07.0,0000.0,0007.67,0002.67,0002.05
2022-12-12 12:24:00,,0812.2,5.01,0.00,23.4,22.0,00.0,32.4,25.1,07.0,0000.0,0007.58,0002.60,0002.02
2022-12-12 12:25:00,,0812.2,5.00,0.00,23.4,22.0,00.0,32.4,25.1,07.0,0000.0,0007.78,0002.57,0001.98
2022-12-12 12:26:00,,0812.2,4.99,0.00,23.4,21.9,00.0,32.4,25.1,07.0,0000.0,0007.79,0002.54,0001.94
2022-12-12 12:27:00,,0812.3,4.99,0.00,23.4,21.9,00.0,32.4,25.1,07.2,0000.0,0007.54,0002.46,0001.88
2022-12-12 12:28:00,,0812.3,5.00,0.00,23.4,21.9,00.0,32.4,25.1,07.1,0000.0,0007.16,0002.29,0001.77
2022-12-12 12:29:00,,0812.3,5.00,0.00,23.4,21.9,00.0,32.3,25.1,07.1,0000.0,0006.85,0002.18,0001.68
2022-12-12 12:30:00,,0812.3,5.00,0.00,23.4,21.9,00.0,32.3,25.1,06.9,0000.0,0007.28,0002.18,0001.66
2022-12-12 12:31:00,,0812.3,5.00,0.00,23.4,21.9,00.0,32.3,25.1,06.9,0000.0,0007.24,0002.16,0001.65
2022-12-12 12:32:00,,0812.3,5.00,0.00,23.4,21.9,00.0,32.3,25.1,06.9,0000.0,0007.37,0002.16,0001.63
2022-12-12 12:33:00,,0812.3,5.00,0.00,23.4,21.9,00.0,32.3,25.1,06.9,0000.0,0006.47,0002.09,0001.61
2022-12-12 12:34:00,,0812.3,4.99,0.00,23.4,21.9,00.0,32.3,25.1,06.8,0000.0,0005.99,0002.02,0001.56
2022-12-12 12:35:00,,0812.3,4.99,0.00,23.4,21.9,00.0,32.3,25.1,06.9,0000.0,0005.79,0001.94,0001.51
2022-12-12 12:36:00,,0812.1,4.99,0.00,23.4,21.9,00.0,32.3,25.1,06.9,0000.0,0005.55,0001.85,0001.46
2022-12-12 12:37:00,,0812.2,5.00,0.00,23.4,21.9,00.0,32.3,25.1,06.9,0000.0,0006.14,0001.82,0001.43
2022-12-12 12:38:00,,0812.1,4.99,0.00,23.3,21.9,00.0,32.3,25.1,06.9,0000.0,0005.94,0001.78,0001.41
2022-12-12 12:39:00,,0812.1,5.00,0.00,23.4,21.9,00.0,32.3,25.1,06.9,0000.0,0005.13,0001.77,0001.42
2022-12-12 12:40:00,,0812.1,5.01,0.00,23.4,21.9,00.0,32.3,25.1,06.9,0000.0,0004.48,0001.81,0001.45
2022-12-12 12:41:00,,0812.1,5.01,0.00,23.4,21.9,00.0,32.3,25.1,06.9,0000.0,0003.92,0001.80,0001.47
2022-12-12 12:42:00,,0812.1,5.00,0.00,23.4,21.9,00.0,32.3,25.1,06.9,0000.0,0003.96,0001.83,0001.49
2022-12-12 12:43:00,,0812.1,5.00,0.00,23.4,21.9,00.0,32.3,25.1,06.9,0000.0,0003.88,0001.85,0001.49
2022-12-12 12:44:00,,0812.2,4.99,0.00,23.4,21.9,00.0,32.3,25.1,06.9,0000.0,0004.49,0001.86,0001.49
2022-12-12 12:45:00,,0812.1,5.00,0.00,23.4,21.9,00.0,32.3,25.1,06.9,0000.0,0005.10,0001.86,0001.50
2022-12-12 12:46:00,,0812.1,5.00,0.00,23.4,21.9,00.0,32.3,25.1,06.8,0000.0,0005.19,0001.87,0001.51
2022-12-12 12:47:00,,0812.1,4.99,0.00,23.4,21.9,00.0,32.3,25.2,06.9,0000.0,0005.06,0001.89,0001.52
2022-12-12 12:48:00,,0812.0,4.99,0.00,23.4,22.0,00.0,32.3,25.2,06.9,0000.0,0004.25,0001.91,0001.54
2022-12-12 12:49:00,,0812.1,5.01,0.00,23.4,21.9,00.0,32.3,25.1,06.8,0000.0,0004.31,0001.95,0001.57
2022-12-12 12:50:00,,0812.0,5.01,0.00,23.4,21.9,00.0,32.3,25.1,06.7,0000.0,0004.46,0002.01,0001.58
2022-12-12 12:51:00,,0812.0,4.99,0.00,23.4,21.9,00.0,32.3,25.1,06.8,0000.0,0004.82,0002.05,0001.56
2022-12-12 12:52:00,,0812.0,4.99,0.00,23.4,21.9,00.0,32.3,25.1,06.8,0000.0,0005.08,0002.07,0001.54
2022-12-12 12:53:00,,0812.0,5.01,0.00,23.4,21.9,00.0,32.3,25.1,06.7,0000.0,0005.24,0002.07,0001.53
2022-12-12 12:54:00,,0811.9,5.01,0.00,23.4,21.9,00.0,32.3,25.1,06.7,0000.0,0005.62,0002.04,0001.53
2022-12-12 12:55:00,,0811.9,5.00,0.00,23.4,21.9,00.0,32.3,25.1,06.8,0000.0,0005.08,0002.07,0001.52
2022-12-12 12:56:00,,0811.9,5.00,0.00,23.4,21.9,00.0,32.3,25.1,06.8,0000.0,0004.61,0002.11,0001.53
2022-12-12 12:57:00,,0811.9,4.99,0.00,23.4,21.9,00.0,32.3,25.2,07.0,0000.0,0004.59,0002.14,0001.54
2022-12-12 12:58:00,,0812.0,4.99,0.00,23.4,21.9,00.0,32.3,25.2,07.1,0000.0,0005.14,0002.20,0001.57
2022-12-12 12:59:00,,0812.0,5.00,0.00,23.4,21.9,00.0,32.3,25.3,07.1,0000.0,0005.41,0002.21,0001.58
